Location: Greenbrook Estates
(40.9276°N, 81.4700°W)
Time: 14:24:26
(UTC+00:00)

Daily predictions for brighter satellites

Satellite Brightness Start Highest point End
(mag) Time Altitude Azimuth Time Altitude Azimuth Time Altitude Azimuth
Radarsat Rocket 4.1 22:20:02 10° SSE 22:25:54 66° ENE 22:32:22 10° N
USA 281 4.3 22:28:18 10° E 22:32:53 21° NE 22:37:29 10° N
MOS 1-B 4.4 22:27:41 10° SSE 22:33:29 90° ENE 22:39:20 10° NNW
CZ-4B R/B 3.2 22:29:29 10° SSE 22:34:43 58° ENE 22:39:56 10° N
H-2A R/B 3.6 22:32:02 10° S 22:35:47 56° W 22:39:35 10° NNW
ISS -2.6 22:33:09 10° W 22:36:17 36° NNW 22:39:27 10° NE
Cosmos 1939 Rocket 4.3 22:33:54 10° ESE 22:36:24 17° ENE 22:38:56 10° NNE
Landsat 5 3.9 22:32:14 10° N 22:36:39 77° WNW 22:41:07 10° SSW
Cosmos 2237 Rocket 2.2 22:31:49 10° SSW 22:37:26 85° ESE 22:43:06 10° NNE
OE (NEXTSAT) 4.4 22:34:53 10° WSW 22:38:19 73° SSE 22:41:40 11° ENE
CORIOLIS 4.2 22:40:48 10° SSE 22:46:05 61° ENE 22:51:27 10° N
Nadezhda 1 Rocket 4.2 22:42:11 10° S 22:48:30 81° W 22:54:56 10° N
FengYun 1-2 T 4.3 22:44:53 10° SE 22:50:15 53° ENE 22:55:37 10° N
Cosmos 405 Rocket 3.4 22:46:43 10° NNW 22:50:36 61° W 22:54:30 10° S
H-2A R/B 2.3 22:46:31 10° N 22:50:40 69° WNW 22:54:53 10° SSW
CZ-4B R/B 1.8 22:47:53 10° NNE 22:50:46 36° E 22:53:39 10° SSE
Cosmos 2369 Rocket 3.9 22:49:49 10° NNE 22:52:11 12° NE 22:53:22 12° ENE
Cosmos 1356 3.9 22:49:32 10° N 22:52:44 36° ENE 22:55:56 10° SE
Abrixas rocket 2.3 22:52:09 10° WNW 22:54:53 57° SSW 22:57:35 10° SE
SKYMED 2 4.4 22:52:06 10° NE 22:55:55 29° E 22:59:43 10° SSE
Cosmos 1980 4.2 22:50:19 10° SW 22:55:57 64° WNW 23:01:37 10° NNE
Cosmos 1633 Rocket 3.7 22:57:08 10° NNE 23:01:06 32° ENE 23:05:01 10° SE
ADEOS Rocket 4.5 22:55:58 10° N 23:03:19 51° WNW 23:10:42 10° SW
X-37B 3.0 23:02:30 10° SSE 23:03:35 11° SE 23:04:29 10° ESE
Cosmos 1867 3.5 22:58:56 10° SSW 23:04:20 76° ESE 23:09:40 11° NE
Cosmos 1606 2.7 23:03:52 10° S 23:07:45 87° W 23:11:40 10° N
Cosmos 962 Rocket 4.4 23:02:01 10° N 23:08:21 76° E 23:14:32 10° SSE
Cosmos 1933 3.4 23:06:31 10° S 23:10:26 52° E 23:14:24 10° NNE
SAR-Lupe-4 4.1 23:08:16 15° NE 23:10:50 36° E 23:14:09 10° SSE
CZ-2C R/B 3.8 23:08:52 10° SE 23:13:08 27° ENE 23:17:14 10° NNE
SMAP 3.7 23:08:34 10° S 23:13:09 61° W 23:17:46 10° NNW
Cosmos 1818 4.1 23:08:12 10° NW 23:13:37 64° WSW 23:18:58 10° SSE
Cosmos 1943 Rocket 3.0 23:12:00 10° N 23:16:41 27° NE 23:19:12 20° E
USA 215 3.3 23:12:52 14° NE 23:18:44 87° NW 23:25:17 10° SW
Cosmos 2341 Rocket 4.0 23:12:30 10° N 23:18:49 81° E 23:25:10 10° S
Cosmos 1125 Rocket 4.1 23:15:06 10° NNW 23:20:13 59° WSW 23:25:19 10° S
Cosmos 2297 3.9 23:15:26 10° NNW 23:20:57 49° ENE 23:26:27 10° SE
Cosmos 1782 3.4 23:20:52 10° SSE 23:24:26 34° E 23:25:18 30° ENE
SL-16 R/B 2.1 23:20:35 10° SSW 23:26:13 76° ESE 23:31:22 13° NNE
Meteor 1-4 Rocket 3.1 23:22:59 10° SSE 23:26:18 34° E 23:26:26 34° E
SAR-Lupe-1 4.0 23:25:48 21° NNE 23:27:58 58° E 23:31:31 10° S
YAOGAN 1 3.6 23:30:24 26° NE 23:30:24 26° NE 23:33:10 10° N
BREEZE-M DEB (TANK) 4.2 23:18:02 10° SW 23:29:27 48° SSE 23:31:29 28° E
ERS-2 2.4 23:27:36 10° N 23:31:16 66° WNW 23:34:53 10° SSW
Cosmos 1689 Rocket 2.3 23:32:45 47° SE 23:32:45 47° SE 23:35:17 10° S
Cosmos 2285 Rocket 4.0 23:26:41 10° NNW 23:33:00 58° ENE 23:39:14 10° SE
PSLV R/B 4.0 23:32:06 25° NE 23:34:10 53° E 23:38:07 10° S
SL-24 R/B 3.7 23:32:18 17° NNE 23:35:13 65° E 23:38:53 10° S
Helios 1A Rocket 3.3 23:36:27 38° ENE 23:36:27 38° ENE 23:39:51 10° N
BREEZE-M DEB (TANK) 3.2 23:34:09 10° W 23:36:12 26° NNW 23:36:12 26° NNW
Cosmos 1470 Rocket 3.7 23:33:38 10° N 23:37:48 45° ENE 23:41:56 10° SSE
Cosmos 864 Rocket 4.4 23:31:35 10° N 23:37:53 68° E 23:44:06 10° SSE
SL-8 Rocket 3.9 23:32:10 10° N 23:38:26 87° E 23:44:43 10° S
Meteor 1-26 Rocket 4.3 23:34:27 10° S 23:40:24 72° E 23:46:26 10° NNE
IRS-1C Rocket 4.0 23:36:26 10° SSE 23:41:42 78° ENE 23:47:00 10° N
Cosmos 1515 Rocket 3.7 23:38:52 10° SSE 23:43:03 48° E 23:43:50 43° ENE
BREEZE-M DEB (TANK) 4.3 23:42:04 10° NW 23:42:50 14° NNW 23:42:50 14° NNW
COSMO-SKYMED 1 2.6 23:39:42 10° N 23:44:03 80° WNW 23:48:23 10° SSW
CZ-2D R/B 3.0 23:40:20 10° SSE 23:44:06 73° ENE 23:47:56 10° N
Lacrosse 5 rocket 1.1 23:41:06 10° SW 23:44:45 71° NW 23:45:31 51° NNE
Cosmos 2181 Rocket 4.2 23:38:52 10° S 23:45:18 79° W 23:51:44 10° N
Cosmos 1959 Rocket 4.4 23:40:31 10° N 23:46:55 83° E 23:53:16 10° S
Cosmos 1602 4.3 23:43:23 10° N 23:49:55 19° SSE 23:51:05 10° SSE
Okean-O 2.6 23:44:23 10° SSE 23:48:42 57° ENE 23:53:04 10° N
USA 267 3.4 23:47:07 31° E 23:49:58 52° NNE 23:56:16 10° NW
Cosmos 1821 Rocket 4.4 23:46:41 10° N 23:52:28 38° ENE 23:53:05 37° E
